^^
Saratoga-Weather Station Historical Data
Daily Summary for July 14, 2020 Units:  English    Metric   Both
Daily Weekly Monthly Yearly Custom
  High: Low: Average:
Temperature: 90 °F 53.6 °F 69.6 °F
Dew Point: 60.8 °F 45 °F 53.2 °F
Humidity: 79% 34% 59%
Wind Speed: 4.9mph 0mph 0.5mph
Wind Gust: 8mph - -
Wind- - ESE
Pressure: 30.2 in 30.1 in -
Precipitation: 0 in    
Historical Graphs
 
 
Tabular Data for July 14, 2020
Time Temperature Dew Point Pressure Wind Wind Speed Wind Gust Humidity Rainfall Rate (Hourly) solar
00:03 59.2 °F 45.3 °F 30.2 in Calm     60% 0 in 0 W/m2
00:08 58.8 °F 45 °F 30.2 in Calm     60% 0 in 0 W/m2
00:14 59 °F 45.1 °F 30.2 in Calm     60% 0 in 0 W/m2
00:19 58.8 °F 45 °F 30.2 in Calm     60% 0 in 0 W/m2
00:24 58.8 °F 45.3 °F 30.2 in Calm     61% 0 in 0 W/m2
00:29 58.8 °F 45.3 °F 30.2 in Calm     61% 0 in 0 W/m2
00:34 58.8 °F 45.3 °F 30.2 in Calm     61% 0 in 0 W/m2
00:39 58.6 °F 46 °F 30.2 in Calm     63% 0 in 0 W/m2
00:44 58.6 °F 46 °F 30.2 in Calm     63% 0 in 0 W/m2
00:49 58.5 °F 45.5 °F 30.2 in Calm     62% 0 in 0 W/m2
00:54 58.5 °F 45.9 °F 30.2 in Calm     63% 0 in 0 W/m2
00:59 58.3 °F 45.7 °F 30.2 in Calm     63% 0 in 0 W/m2
01:04 57.9 °F 45.3 °F 30.2 in Calm     63% 0 in 0 W/m2
01:09 57.7 °F 45.7 °F 30.2 in Calm     64% 0 in 0 W/m2
01:14 57.7 °F 46 °F 30.2 in Calm     65% 0 in 0 W/m2
01:19 57.6 °F 45.9 °F 30.2 in Calm     65% 0 in 0 W/m2
01:24 57.4 °F 45.7 °F 30.2 in Calm     65% 0 in 0 W/m2
01:29 57.2 °F 45.5 °F 30.2 in Calm     65% 0 in 0 W/m2
01:34 57.2 °F 45.9 °F 30.2 in Calm     66% 0 in 0 W/m2
01:39 57 °F 46.2 °F 30.2 in Calm     67% 0 in 0 W/m2
01:44 57 °F 46.2 °F 30.2 in Calm     67% 0 in 0 W/m2
01:49 56.8 °F 46 °F 30.2 in Calm     67% 0 in 0 W/m2
01:54 56.8 °F 46 °F 30.2 in Calm     67% 0 in 0 W/m2
01:59 56.8 °F 46 °F 30.2 in Calm     67% 0 in 0 W/m2
02:04 56.7 °F 46.2 °F 30.2 in Calm     68% 0 in 0 W/m2
02:09 56.7 °F 46.2 °F 30.2 in Calm     68% 0 in 0 W/m2
02:14 56.7 °F 46.2 °F 30.2 in Calm     68% 0 in 0 W/m2
02:19 56.5 °F 46 °F 30.2 in Calm     68% 0 in 0 W/m2
02:24 56.5 °F 46.4 °F 30.2 in Calm     69% 0 in 0 W/m2
02:29 56.5 °F 46.4 °F 30.2 in Calm     69% 0 in 0 W/m2
02:34 56.3 °F 45.9 °F 30.2 in Calm     68% 0 in 0 W/m2
02:39 56.1 °F 46 °F 30.2 in Calm     69% 0 in 0 W/m2
02:44 55.9 °F 46.2 °F 30.2 in Calm     70% 0 in 0 W/m2
02:49 55.9 °F 46.2 °F 30.2 in Calm     70% 0 in 0 W/m2
02:54 55.8 °F 46.6 °F 30.2 in Calm     71% 0 in 0 W/m2
02:59 55.8 °F 46.6 °F 30.2 in Calm     71% 0 in 0 W/m2
03:04 55.8 °F 46.9 °F 30.2 in Calm     72% 0 in 0 W/m2
03:09 55.6 °F 46.4 °F 30.2 in Calm     71% 0 in 0 W/m2
03:14 55.6 °F 46.8 °F 30.2 in Calm     72% 0 in 0 W/m2
03:19 55.6 °F 47.1 °F 30.2 in Calm     73% 0 in 0 W/m2
03:24 55.6 °F 47.1 °F 30.2 in Calm     73% 0 in 0 W/m2
03:29 55.9 °F 47.1 °F 30.2 in Calm     72% 0 in 0 W/m2
03:34 55.9 °F 47.5 °F 30.2 in Calm     73% 0 in 0 W/m2
03:39 55.9 °F 47.5 °F 30.2 in Calm     73% 0 in 0 W/m2
03:44 55.9 °F 47.5 °F 30.2 in Calm     73% 0 in 0 W/m2
03:49 55.9 °F 47.1 °F 30.2 in Calm     72% 0 in 0 W/m2
03:54 55.9 °F 47.1 °F 30.2 in Calm     72% 0 in 0 W/m2
03:59 55.9 °F 47.1 °F 30.2 in Calm     72% 0 in 0 W/m2
04:04 55.8 °F 46.9 °F 30.2 in Calm     72% 0 in 0 W/m2
04:09 55.8 °F 46.9 °F 30.2 in Calm     72% 0 in 0 W/m2
04:14 55.6 °F 46.8 °F 30.2 in Calm     72% 0 in 0 W/m2
04:19 55.4 °F 46.6 °F 30.2 in Calm     72% 0 in 0 W/m2
04:24 55.2 °F 46.4 °F 30.2 in Calm     72% 0 in 0 W/m2
04:29 55.2 °F 46.8 °F 30.2 in Calm     73% 0 in 0 W/m2
04:34 55.2 °F 46.8 °F 30.2 in Calm     73% 0 in 0 W/m2
04:39 55.2 °F 46.8 °F 30.2 in Calm     73% 0 in 0 W/m2
04:44 55.2 °F 46.8 °F 30.2 in Calm     73% 0 in 0 W/m2
04:50 55.4 °F 47.3 °F 30.2 in Calm     74% 0 in 0 W/m2
04:55 55.4 °F 46.9 °F 30.2 in Calm     73% 0 in 0 W/m2
05:00 55.4 °F 46.9 °F 30.2 in Calm     73% 0 in 0 W/m2
05:05 55.2 °F 46.8 °F 30.2 in Calm     73% 0 in 0 W/m2
05:10 55 °F 46.9 °F 30.2 in Calm     74% 0 in 0 W/m2
05:15 55 °F 46.9 °F 30.2 in Calm     74% 0 in 0 W/m2
05:20 55 °F 46.9 °F 30.2 in Calm     74% 0 in 0 W/m2
05:25 55 °F 47.3 °F 30.2 in Calm     75% 0 in 0 W/m2
05:30 55 °F 47.3 °F 30.2 in Calm     75% 0 in 0 W/m2
05:35 54.9 °F 47.1 °F 30.2 in Calm     75% 0 in 0 W/m2
05:40 54.7 °F 46.9 °F 30.2 in Calm     75% 0 in 0 W/m2
05:45 54.5 °F 47.1 °F 30.2 in Calm     76% 0 in 0 W/m2
05:50 54.3 °F 46.9 °F 30.2 in Calm     76% 0 in 0 W/m2
05:55 54.3 °F 46.9 °F 30.2 in Calm     76% 0 in 0 W/m2
06:00 54.1 °F 46.8 °F 30.2 in Calm     76% 0 in 0 W/m2
06:05 54.3 °F 46.9 °F 30.2 in Calm     76% 0 in 0 W/m2
06:11 54.3 °F 46.9 °F 30.2 in Calm     76% 0 in 0 W/m2
06:16 54.3 °F 46.9 °F 30.2 in Calm     76% 0 in 0 W/m2
06:21 54.1 °F 46.8 °F 30.2 in Calm     76% 0 in 0 W/m2
06:26 54.1 °F 46.8 °F 30.2 in Calm     76% 0 in 0 W/m2
06:31 54.1 °F 46.8 °F 30.2 in Calm     76% 0 in 0 W/m2
06:36 54.1 °F 47.1 °F 30.2 in Calm     77% 0 in 0 W/m2
06:41 54 °F 46.9 °F 30.2 in Calm     77% 0 in 0 W/m2
06:46 53.8 °F 46.8 °F 30.2 in Calm     77% 0 in 0 W/m2
06:51 53.8 °F 47.1 °F 30.2 in Calm     78% 0 in 0 W/m2
06:56 54 °F 47.3 °F 30.2 in Calm     78% 0 in 0 W/m2
07:01 54 °F 47.7 °F 30.2 in Calm     79% 0 in 0 W/m2
07:06 54 °F 47.7 °F 30.2 in Calm     79% 0 in 0 W/m2
07:11 53.8 °F 47.1 °F 30.2 in Calm     78% 0 in 0 W/m2
07:16 53.8 °F 47.5 °F 30.2 in Calm     79% 0 in 5 W/m2
07:21 53.6 °F 47.3 °F 30.2 in Calm     79% 0 in 7 W/m2
07:26 53.6 °F 47.3 °F 30.2 in Calm     79% 0 in 9 W/m2
07:31 53.6 °F 47.3 °F 30.2 in Calm     79% 0 in 14 W/m2
07:36 53.6 °F 47.3 °F 30.2 in Calm     79% 0 in 16 W/m2
07:41 53.8 °F 47.5 °F 30.2 in Calm     79% 0 in 19 W/m2
07:46 53.8 °F 47.5 °F 30.2 in Calm     79% 0 in 23 W/m2
07:51 54 °F 47.7 °F 30.2 in Calm     79% 0 in 25 W/m2
07:56 54 °F 47.7 °F 30.2 in Calm     79% 0 in 28 W/m2
08:01 54 °F 47.7 °F 30.2 in Calm     79% 0 in 33 W/m2
08:06 54.1 °F 47.8 °F 30.2 in Calm     79% 0 in 37 W/m2
08:11 54.1 °F 47.8 °F 30.2 in Calm     79% 0 in 40 W/m2
08:16 54.3 °F 48 °F 30.2 in Calm     79% 0 in 42 W/m2
08:21 54.7 °F 48.4 °F 30.2 in Calm     79% 0 in 51 W/m2
08:26 55 °F 48.4 °F 30.2 in Calm     78% 0 in 88 W/m2
08:31 55.6 °F 48.9 °F 30.2 in Calm     78% 0 in 109 W/m2
08:37 55.9 °F 48.9 °F 30.2 in Calm     77% 0 in 120 W/m2
08:42 56.5 °F 49.3 °F 30.2 in Calm     77% 0 in 134 W/m2
08:47 56.8 °F 49.3 °F 30.2 in Calm     76% 0 in 135 W/m2
08:52 57.4 °F 49.5 °F 30.2 in Calm     75% 0 in 53 W/m2
08:57 57.7 °F 49.8 °F 30.2 in Calm     75% 0 in 100 W/m2
09:02 58.5 °F 50.5 °F 30.2 in Calm     75% 0 in 188 W/m2
09:07 59 °F 51.1 °F 30.2 in Calm     75% 0 in 199 W/m2
09:12 59.7 °F 51.4 °F 30.2 in Calm     74% 0 in 213 W/m2
09:17 60.4 °F 51.8 °F 30.2 in Calm     73% 0 in 158 W/m2
09:22 61.2 °F 52 °F 30.2 in Calm     72% 0 in 69 W/m2
09:27 61.9 °F 52.3 °F 30.2 in Calm     71% 0 in 54 W/m2
09:32 62.8 °F 52.9 °F 30.2 in Calm     70% 0 in 56 W/m2
09:37 63.5 °F 52.3 °F 30.2 in Calm     67% 0 in 58 W/m2
09:42 64.4 °F 52.9 °F 30.2 in Calm     66% 0 in 58 W/m2
09:47 64.9 °F 52.9 °F 30.2 in Calm     65% 0 in 60 W/m2
09:52 65.7 °F 53.2 °F 30.2 in Calm   1 mph 64% 0 in 60 W/m2
09:57 66.4 °F 53.4 °F 30.2 in Calm   1 mph 63% 0 in 62 W/m2
10:02 66.9 °F 53.4 °F 30.2 in Calm     62% 0 in 62 W/m2
10:07 67.6 °F 54.1 °F 30.2 in ESE 2 mph 3 mph 62% 0 in 63 W/m2
10:12 68.5 °F 54.1 °F 30.2 in ENE 0.9 mph 1 mph 60% 0 in 63 W/m2
10:17 69.3 °F 54.3 °F 30.2 in ENE 0.9 mph 3 mph 59% 0 in 65 W/m2
10:22 69.4 °F 54.5 °F 30.2 in Calm   2 mph 59% 0 in 65 W/m2
10:27 69.8 °F 54.9 °F 30.2 in Calm   3 mph 59% 0 in 67 W/m2
10:32 70.2 °F 55.2 °F 30.2 in East 2.9 mph 4 mph 59% 0 in 67 W/m2
10:37 70.3 °F 54.3 °F 30.2 in Calm   2 mph 57% 0 in 67 W/m2
10:42 70.5 °F 55 °F 30.2 in East 0.9 mph 4 mph 58% 0 in 69 W/m2
10:47 70.7 °F 54.7 °F 30.2 in NE 2.9 mph 4 mph 57% 0 in 69 W/m2
10:52 70.9 °F 54.9 °F 30.2 in Calm   1 mph 57% 0 in 70 W/m2
10:57 70.9 °F 55.4 °F 30.2 in Calm   4 mph 58% 0 in 72 W/m2
11:02 71.2 °F 56.1 °F 30.2 in Calm     59% 0 in 74 W/m2
11:07 71.6 °F 56.5 °F 30.2 in NNE 0.9 mph 1 mph 59% 0 in 76 W/m2
11:12 72.1 °F 56.1 °F 30.2 in NE 2.9 mph 3 mph 57% 0 in 77 W/m2
11:17 72.7 °F 57 °F 30.2 in Calm   1 mph 58% 0 in 79 W/m2
11:22 72.9 °F 56.3 °F 30.2 in ENE 2.9 mph 3 mph 56% 0 in 81 W/m2
11:27 73 °F 56.5 °F 30.2 in NNW 2 mph 2 mph 56% 0 in 83 W/m2
11:32 73 °F 56.5 °F 30.2 in Calm   1 mph 56% 0 in 84 W/m2
11:37 73.6 °F 56.8 °F 30.2 in East 0.9 mph 1 mph 56% 0 in 88 W/m2
11:42 74.1 °F 56.8 °F 30.2 in Calm   2 mph 55% 0 in 311 W/m2
11:47 74.7 °F 57.4 °F 30.2 in Calm   3 mph 55% 0 in 557 W/m2
11:52 75 °F 57.7 °F 30.2 in North 0.9 mph 3 mph 55% 0 in 527 W/m2
11:57 75.6 °F 57.7 °F 30.2 in Calm   2 mph 54% 0 in 564 W/m2
12:02 75.7 °F 57.9 °F 30.2 in East 0.9 mph 3 mph 54% 0 in 578 W/m2
12:07 76.1 °F 57.7 °F 30.2 in Calm     53% 0 in 592 W/m2
12:12 77 °F 58.1 °F 30.2 in East 2 mph 6 mph 52% 0 in 598 W/m2
12:18 77.7 °F 58.1 °F 30.2 in SE 0.9 mph 2 mph 51% 0 in 606 W/m2
12:23 78.1 °F 58.5 °F 30.2 in Calm   2 mph 51% 0 in 612 W/m2
12:28 78.3 °F 58.6 °F 30.2 in East 2 mph 3 mph 51% 0 in 621 W/m2
12:33 79 °F 59.4 °F 30.2 in Calm   2 mph 51% 0 in 626 W/m2
12:38 79.9 °F 59 °F 30.2 in Calm   1 mph 49% 0 in 635 W/m2
12:43 80.4 °F 60.1 °F 30.2 in ESE 2 mph 2 mph 50% 0 in 643 W/m2
12:48 81.1 °F 59.5 °F 30.2 in ENE 4 mph 4 mph 48% 0 in 645 W/m2
12:53 81.5 °F 59.9 °F 30.2 in ENE 2.9 mph 3 mph 48% 0 in 652 W/m2
12:58 81.9 °F 60.3 °F 30.2 in SSE 0.9 mph 4 mph 48% 0 in 656 W/m2
13:03 81.9 °F 60.3 °F 30.2 in East 2.9 mph 6 mph 48% 0 in 659 W/m2
13:08 82.2 °F 59.9 °F 30.2 in ESE 0.9 mph 2 mph 47% 0 in 657 W/m2
13:13 82.6 °F 60.3 °F 30.2 in Calm   6 mph 47% 0 in 661 W/m2
13:18 82.8 °F 60.4 °F 30.2 in ESE 0.9 mph 3 mph 47% 0 in 663 W/m2
13:23 82.9 °F 60.1 °F 30.2 in Calm   6 mph 46% 0 in 670 W/m2
13:28 83.1 °F 60.3 °F 30.2 in NNE 4 mph 6 mph 46% 0 in 670 W/m2
13:33 83.3 °F 60.4 °F 30.2 in SSE 0.9 mph 3 mph 46% 0 in 670 W/m2
13:38 83.7 °F 60.1 °F 30.2 in NE 2 mph 6 mph 45% 0 in 668 W/m2
13:43 83.8 °F 59.5 °F 30.2 in NE 4 mph 5 mph 44% 0 in 673 W/m2
13:48 84.2 °F 60.6 °F 30.2 in NE 0.9 mph 2 mph 45% 0 in 668 W/m2
13:53 84.6 °F 60.8 °F 30.2 in NNE 4 mph 4 mph 45% 0 in 670 W/m2
13:58 84.4 °F 60.1 °F 30.2 in East 0.9 mph 4 mph 44% 0 in 663 W/m2
14:03 84.7 °F 59.7 °F 30.2 in Calm   1 mph 43% 0 in 661 W/m2
14:08 85.1 °F 59.4 °F 30.2 in East 4.9 mph 5 mph 42% 0 in 659 W/m2
14:13 85.5 °F 59.7 °F 30.2 in ESE 2 mph 6 mph 42% 0 in 661 W/m2
14:19 85.5 °F 59.7 °F 30.2 in East 2 mph 3 mph 42% 0 in 663 W/m2
14:24 85.8 °F 59.4 °F 30.2 in ESE 2.9 mph 5 mph 41% 0 in 661 W/m2
14:29 86.4 °F 58.5 °F 30.2 in SSW 2.9 mph 4 mph 39% 0 in 661 W/m2
14:34 86.4 °F 58.5 °F 30.2 in NE 4 mph 4 mph 39% 0 in 663 W/m2
14:39 86.5 °F 58.6 °F 30.2 in East 4 mph 4 mph 39% 0 in 659 W/m2
14:44 86.7 °F 58.1 °F 30.2 in NNE 0.9 mph 2 mph 38% 0 in 656 W/m2
14:49 87.3 °F 58.6 °F 30.2 in NE 2.9 mph 5 mph 38% 0 in 652 W/m2
14:54 87.4 °F 58.6 °F 30.2 in SSW 2 mph 3 mph 38% 0 in 631 W/m2
14:59 87.6 °F 57.4 °F 30.2 in ENE 2.9 mph 8 mph 36% 0 in 598 W/m2
15:04 87.6 °F 58.1 °F 30.2 in Calm   4 mph 37% 0 in 594 W/m2
15:09 87.6 °F 57.4 °F 30.2 in East 0.9 mph 8 mph 36% 0 in 573 W/m2
15:14 87.6 °F 56.7 °F 30.2 in South 0.9 mph 3 mph 35% 0 in 585 W/m2
15:19 87.8 °F 56.7 °F 30.2 in Calm   6 mph 35% 0 in 575 W/m2
15:24 88.2 °F 57 °F 30.2 in Calm   2 mph 35% 0 in 575 W/m2
15:29 88.3 °F 58.8 °F 30.2 in East 0.9 mph 4 mph 37% 0 in 563 W/m2
15:34 88.5 °F 57.4 °F 30.2 in SE 0.9 mph 4 mph 35% 0 in 533 W/m2
15:39 88.5 °F 58.1 °F 30.2 in ENE 0.9 mph 3 mph 36% 0 in 513 W/m2
15:44 88.7 °F 58.3 °F 30.2 in Calm   1 mph 36% 0 in 510 W/m2
15:49 88.9 °F 59.2 °F 30.2 in NE 2.9 mph 3 mph 37% 0 in 515 W/m2
15:54 88.9 °F 58.5 °F 30.2 in NE 2 mph 3 mph 36% 0 in 540 W/m2
15:59 88.9 °F 58.5 °F 30.2 in East 2.9 mph 3 mph 36% 0 in 533 W/m2
16:04 89.1 °F 59.4 °F 30.2 in NE 2 mph 2 mph 37% 0 in 503 W/m2
16:09 89.2 °F 58.8 °F 30.2 in ESE 0.9 mph 1 mph 36% 0 in 480 W/m2
16:14 89.1 °F 58.6 °F 30.2 in East 0.9 mph 2 mph 36% 0 in 466 W/m2
16:19 89.2 °F 58.8 °F 30.2 in Calm   4 mph 36% 0 in 499 W/m2
16:24 89.1 °F 58.6 °F 30.2 in NE 0.9 mph 3 mph 36% 0 in 492 W/m2
16:29 89.2 °F 58.8 °F 30.1 in South 0.9 mph 4 mph 36% 0 in 489 W/m2
16:34 89.6 °F 59.2 °F 30.1 in ESE 2 mph 3 mph 36% 0 in 482 W/m2
16:39 89.8 °F 60.1 °F 30.1 in ESE 2 mph 2 mph 37% 0 in 464 W/m2
16:44 89.8 °F 58.5 °F 30.1 in East 2 mph 3 mph 35% 0 in 464 W/m2
16:49 89.4 °F 58.1 °F 30.1 in East 0.9 mph 3 mph 35% 0 in 457 W/m2
16:54 89.4 °F 58.1 °F 30.1 in Calm   2 mph 35% 0 in 448 W/m2
16:59 89.6 °F 58.3 °F 30.1 in ENE 0.9 mph 3 mph 35% 0 in 436 W/m2
17:04 89.8 °F 59.2 °F 30.1 in East 2.9 mph 3 mph 36% 0 in 401 W/m2
17:09 89.8 °F 59.2 °F 30.1 in Calm   1 mph 36% 0 in 401 W/m2
17:14 89.8 °F 57.7 °F 30.1 in ENE 2 mph 5 mph 34% 0 in 394 W/m2
17:19 90 °F 58.6 °F 30.1 in ENE 0.9 mph 4 mph 35% 0 in 371 W/m2
17:24 90 °F 58.6 °F 30.1 in Calm   5 mph 35% 0 in 357 W/m2
17:29 89.6 °F 58.3 °F 30.1 in SE 2.9 mph 3 mph 35% 0 in 332 W/m2
17:34 89.4 °F 59 °F 30.1 in ESE 2 mph 2 mph 36% 0 in 330 W/m2
17:39 89.2 °F 59.5 °F 30.1 in NE 0.9 mph 1 mph 37% 0 in 285 W/m2
17:44 89.1 °F 59.4 °F 30.1 in SE 0.9 mph 1 mph 37% 0 in 278 W/m2
17:49 89.1 °F 60.1 °F 30.1 in Calm     38% 0 in 315 W/m2
17:54 88.9 °F 59.2 °F 30.1 in East 0.9 mph 2 mph 37% 0 in 271 W/m2
17:59 88.3 °F 59.5 °F 30.1 in East 0.9 mph 1 mph 38% 0 in 190 W/m2
18:04 88.2 °F 60.1 °F 30.1 in Calm   1 mph 39% 0 in 197 W/m2
18:09 88 °F 59.9 °F 30.1 in Calm     39% 0 in 134 W/m2
18:14 87.3 °F 60.6 °F 30.1 in Calm   1 mph 41% 0 in 199 W/m2
18:19 86.7 °F 60.3 °F 30.1 in Calm     41% 0 in 128 W/m2
18:24 86.2 °F 60.4 °F 30.1 in SW 0.9 mph 1 mph 42% 0 in 83 W/m2
18:29 85.5 °F 59.7 °F 30.1 in SW 2 mph 2 mph 42% 0 in 83 W/m2
18:34 84.9 °F 60.6 °F 30.1 in Calm   2 mph 44% 0 in 79 W/m2
18:39 84.4 °F 59.4 °F 30.1 in Calm     43% 0 in 100 W/m2
18:44 83.7 °F 59.4 °F 30.1 in Calm   1 mph 44% 0 in 97 W/m2
18:49 83.3 °F 59.7 °F 30.1 in Calm   1 mph 45% 0 in 109 W/m2
18:54 82.9 °F 59.4 °F 30.1 in SW 0.9 mph 1 mph 45% 0 in 83 W/m2
18:59 82.6 °F 59 °F 30.1 in SW 0.9 mph 2 mph 45% 0 in 37 W/m2
19:04 82 °F 58.6 °F 30.1 in Calm   2 mph 45% 0 in 33 W/m2
19:09 81.3 °F 58.6 °F 30.1 in SW 0.9 mph 1 mph 46% 0 in 32 W/m2
19:14 80.8 °F 58.6 °F 30.1 in SW 0.9 mph 1 mph 47% 0 in 30 W/m2
19:19 80.2 °F 58.1 °F 30.1 in SW 0.9 mph 2 mph 47% 0 in 26 W/m2
19:24 79.5 °F 58.1 °F 30.1 in Calm   1 mph 48% 0 in 25 W/m2
19:29 79.2 °F 58.3 °F 30.1 in Calm   2 mph 49% 0 in 25 W/m2
19:34 78.4 °F 57.7 °F 30.1 in Calm   1 mph 49% 0 in 23 W/m2
19:39 78.3 °F 57.6 °F 30.1 in Calm     49% 0 in 18 W/m2
19:44 77.7 °F 57.6 °F 30.1 in Calm   1 mph 50% 0 in 12 W/m2
19:49 77.4 °F 57.2 °F 30.1 in Calm     50% 0 in 7 W/m2
19:54 77 °F 57.6 °F 30.1 in Calm     51% 0 in 5 W/m2
19:59 76.5 °F 57.6 °F 30.1 in Calm     52% 0 in 0 W/m2
20:04 75.9 °F 57.6 °F 30.1 in Calm     53% 0 in 0 W/m2
20:09 75.7 °F 57.4 °F 30.1 in Calm     53% 0 in 0 W/m2
20:14 75.2 °F 56.8 °F 30.1 in Calm     53% 0 in 0 W/m2
20:19 74.8 °F 57 °F 30.1 in Calm     54% 0 in 0 W/m2
20:24 74.5 °F 56.7 °F 30.1 in Calm     54% 0 in 0 W/m2
20:29 73.9 °F 56.8 °F 30.1 in Calm     55% 0 in 0 W/m2
20:34 73.8 °F 56.7 °F 30.1 in Calm     55% 0 in 0 W/m2
20:39 73.2 °F 56.7 °F 30.1 in Calm     56% 0 in 0 W/m2
20:44 73 °F 56.5 °F 30.1 in Calm     56% 0 in 0 W/m2
20:49 72.9 °F 56.7 °F 30.1 in Calm     57% 0 in 0 W/m2
20:54 72.7 °F 56.5 °F 30.1 in Calm     57% 0 in 0 W/m2
20:59 72.3 °F 56.3 °F 30.1 in Calm     57% 0 in 0 W/m2
21:04 72.1 °F 56.5 °F 30.1 in Calm     58% 0 in 0 W/m2
21:09 72 °F 56.3 °F 30.1 in Calm     58% 0 in 0 W/m2
21:14 71.4 °F 55.9 °F 30.1 in Calm     58% 0 in 0 W/m2
21:19 71.1 °F 55.9 °F 30.1 in Calm     59% 0 in 0 W/m2
21:24 70.9 °F 56.3 °F 30.1 in Calm     60% 0 in 0 W/m2
21:29 70.5 °F 56.5 °F 30.1 in Calm     61% 0 in 0 W/m2
21:34 70.3 °F 56.3 °F 30.1 in Calm     61% 0 in 0 W/m2
21:39 70 °F 56.3 °F 30.1 in Calm     62% 0 in 0 W/m2
21:44 69.8 °F 56.7 °F 30.1 in Calm     63% 0 in 0 W/m2
21:49 69.4 °F 56.3 °F 30.1 in Calm     63% 0 in 0 W/m2
21:54 69.3 °F 56.1 °F 30.1 in Calm     63% 0 in 0 W/m2
21:59 69.1 °F 56.5 °F 30.1 in Calm     64% 0 in 0 W/m2
22:04 68.5 °F 55.9 °F 30.1 in Calm     64% 0 in 0 W/m2
22:09 68.5 °F 55.9 °F 30.1 in Calm     64% 0 in 0 W/m2
22:14 68.2 °F 55.6 °F 30.1 in Calm     64% 0 in 0 W/m2
22:19 68 °F 55.4 °F 30.1 in Calm     64% 0 in 0 W/m2
22:24 67.8 °F 55.6 °F 30.1 in Calm     65% 0 in 0 W/m2
22:29 67.6 °F 55.4 °F 30.1 in Calm     65% 0 in 0 W/m2
22:34 67.5 °F 55.2 °F 30.1 in Calm     65% 0 in 0 W/m2
22:39 67.3 °F 55 °F 30.1 in Calm     65% 0 in 0 W/m2
22:44 67.3 °F 55 °F 30.1 in Calm     65% 0 in 0 W/m2
22:49 66.9 °F 55.2 °F 30.1 in Calm     66% 0 in 0 W/m2
22:54 66.7 °F 55.4 °F 30.1 in Calm     67% 0 in 0 W/m2
22:59 66.6 °F 55.2 °F 30.1 in Calm     67% 0 in 0 W/m2
23:04 66.4 °F 55.6 °F 30.1 in Calm     68% 0 in 0 W/m2
23:09 66 °F 55.2 °F 30.1 in Calm     68% 0 in 0 W/m2
23:14 65.8 °F 55.4 °F 30.1 in Calm     69% 0 in 0 W/m2
Juneau County Weather
Compliments of Weather Underground - 4 mb